Home   Weather   Bad Nauheim   Past weeks

Flag for Germany Past Weather in Bad Nauheim, Hesse, Germany — Yesterday and Last 2 Weeks

Now
41 °F

Passing clouds.


Feels Like: 38 °F
Forecast: 33 / 47 °F
Wind: 5 mph from Southwest

Location: Frankfurt-M-Flughafen Airport

Current Time: Dec 10, 2016 at 11:36:11 pm

Latest Report: Dec 10, 2016 at 11:20 pm


Visibility: N/A

Pressure: 30.18 "Hg

Humidity: 81%

Dew Point: 36 °F

Location of Bad NauheimLocation

Past Weather in Bad Nauheim — Graph

°F

Bad Nauheim Temperature Yesterday

Maximum temperature yesterday: 41 °F (at 8:50 pm)
Minimum temperature yesterday: 28 °F (at 2:20 am)
Average temperature yesterday: 35 °F

High & Low Weather Summary for the Past Weeks

 TemperatureHumidityPressure
High48 °F (Nov 27, 12:50 pm)100% (Nov 27, 4:20 am)30.60 "Hg (Nov 27, 4:20 am)
Low18 °F (Nov 30, 8:20 am)48% (Nov 28, 2:20 pm)30.04 "Hg (Nov 26, 1:50 pm)
Average34 °F84%30.36 "Hg
* Reported Nov 25 10:20 pm — Dec 10 10:20 pm, Bad Nauheim, Weather by CustomWeather, © 2016

Note: Actual official high and low records may vary slightly from our data, if they occured in-between our weather recording intervals... More about our weather records

Advertising

Bad Nauheim Weather History for the Previous 24 Hours

Scroll right to see more
 ConditionsComfort  
Time TempWeatherWind HumidityBarometerVisibility
10:20 pm
Sat, Dec 10
41 °FPassing clouds.7 mph81%30.21 "HgN/A
9:50 pm39 °FPassing clouds.8 mph87%30.21 "HgN/A
9:20 pm39 °FPartly cloudy.7 mph87%30.21 "HgN/A
8:50 pm39 °FClear.6 mph87%30.21 "Hg10 mi
8:20 pm39 °FClear.3 mph87%30.24 "Hg10 mi
7:50 pm36 °FClear.6 mph93%30.24 "Hg10 mi
7:20 pm36 °FClear.6 mph93%30.24 "Hg10 mi
6:50 pm36 °FFog.8 mph93%30.24 "HgN/A
6:20 pm36 °FPassing clouds.5 mph93%30.24 "HgN/A
5:50 pm36 °FClear.6 mph93%30.24 "Hg10 mi
5:20 pm37 °FClear.2 mph93%30.24 "Hg10 mi
4:50 pm37 °FClear.3 mph93%30.24 "Hg10 mi
4:20 pm41 °FSunny.3 mph81%30.24 "Hg10 mi
3:50 pm45 °FPassing clouds.5 mph76%30.24 "HgN/A
3:20 pm46 °FSunny.6 mph71%30.24 "Hg10 mi
2:50 pm46 °FSunny.6 mph71%30.27 "Hg10 mi
2:20 pm46 °FSunny.8 mph71%30.27 "Hg10 mi
1:50 pm45 °FSunny.7 mph71%30.27 "Hg10 mi
1:20 pm45 °FPassing clouds.8 mph71%30.30 "HgN/A
12:50 pm43 °FSunny.8 mph76%30.30 "Hg10 mi
12:20 pm41 °FSunny.7 mph81%30.30 "Hg10 mi
11:50 am41 °FPassing clouds.7 mph81%30.30 "HgN/A
11:20 am39 °FClear.8 mph87%30.33 "Hg6 mi
10:50 am37 °FClear.8 mph87%30.33 "Hg4 mi
10:20 am36 °FFog.3 mph93%30.33 "Hg3 mi
9:50 am34 °FFog.1 mph93%30.33 "Hg2 mi
9:20 am30 °FIce fog.2 mph100%30.33 "Hg1 mi
8:50 am30 °FIce fog.2 mph93%30.33 "Hg2 mi
8:20 am30 °FIce fog.2 mph100%30.33 "Hg2 mi
7:50 am32 °FIce fog.3 mph93%30.33 "Hg2 mi
7:20 am32 °FLight fog.5 mph93%30.30 "Hg3 mi
6:50 am32 °FFog.7 mph100%30.30 "Hg4 mi
6:20 am32 °FFog.7 mph100%30.33 "Hg4 mi
5:50 am28 °FClear.8 mph100%30.30 "Hg6 mi
5:20 am32 °FLight fog.6 mph100%30.33 "Hg4 mi
4:50 am30 °FLight fog.3 mph93%30.33 "Hg4 mi
4:20 am30 °FLight fog.2 mph93%30.33 "Hg4 mi
3:50 am30 °FIce fog.2 mph93%30.33 "Hg3 mi
3:20 am30 °FIce fog.2 mph93%30.33 "Hg3 mi
2:50 am30 °FIce fog.1 mph100%30.36 "Hg3 mi
2:20 am32 °FIce fog.1 mph93%30.36 "Hg2 mi
1:50 am32 °FIce fog.2 mph93%30.36 "Hg2 mi
1:20 am32 °FSnow. Ice fog.1 mph93%30.39 "Hg2 mi
12:50 am32 °FLight fog.1 mph100%30.39 "Hg6 mi
12:20 am34 °FLight fog.1 mph93%30.39 "Hg6 mi
11:50 pm
Fri, Dec 9
34 °FLight fog.2 mph100%30.39 "Hg6 mi
11:20 pm34 °FLight fog.5 mph100%30.39 "HgN/A
Weather by CustomWeather, © 2016

See weather overviewHow to use our weather pages